This is the latest recevied weather packets stored in our database for station/object KD7ECD. If no packets are shown the sender has not sent any weather packets the latest 10 day(s).
| Time | Temp. | Humidity | Pressure | Rain* | Wind** | Luminosity | Snow |
|---|---|---|---|---|---|---|---|
| 1777940268 | 15° C | 68% | 1017.3 hPa | 0 mm | - | 88 W/m² | - |
| 1777939668 | 15° C | 68% | 1017.2 hPa | 0 mm | - | 58 W/m² | - |
| 1777939068 | 15.56° C | 68% | 1017.1 hPa | 0 mm | - | 45 W/m² | - |
| 1777938468 | 15.56° C | 68% | 1017.5 hPa | 0 mm | - | 34 W/m² | - |
| 1777937867 | 15.56° C | 69% | 1017.2 hPa | 0 mm | - | 46 W/m² | - |
| 1777937266 | 15.56° C | 69% | 1017.5 hPa | 0 mm | - | 64 W/m² | - |
| 1777936666 | 15.56° C | 69% | 1017.2 hPa | 0 mm | - | 81 W/m² | - |
| 1777936064 | 15.56° C | 69% | 1017.3 hPa | 0 mm | - | 79 W/m² | - |
| 1777935461 | 15.56° C | 69% | 1017.4 hPa | 0 mm | - | 68 W/m² | - |
| 1777934860 | 15.56° C | 69% | 1017.3 hPa | 0 mm | - | 63 W/m² | - |
| 1777934259 | 15.56° C | 69% | 1017.3 hPa | 0 mm | - | 59 W/m² | - |
| 1777933658 | 15.56° C | 69% | 1017.3 hPa | 0 mm | - | 75 W/m² | - |
| 1777933058 | 15.56° C | 68% | 1017.3 hPa | 0 mm | - | 66 W/m² | - |
| 1777932457 | 15.56° C | 69% | 1017.4 hPa | 0 mm | - | 63 W/m² | - |
| 1777931852 | 15.56° C | 68% | 1017.2 hPa | 0 mm | - | 75 W/m² | - |
| 1777931250 | 15.56° C | 67% | 1017.2 hPa | 0 mm | - | 83 W/m² | - |
| 1777930649 | 16.11° C | 66% | 1017.4 hPa | 0 mm | - | 79 W/m² | - |
| 1777930048 | 16.11° C | 63% | 1017.4 hPa | 0 mm | - | 100 W/m² | - |
| 1777929448 | 16.11° C | 62% | 1017.6 hPa | 0 mm | - | 108 W/m² | - |
| 1777928848 | 16.11° C | 63% | 1017.4 hPa | 0 mm | - | 127 W/m² | - |
| 1777928248 | 16.67° C | 61% | 1017.4 hPa | 0 mm | - | 170 W/m² | - |
| 1777927643 | 16.67° C | 60% | 1017.4 hPa | 0 mm | - | 176 W/m² | - |
| 1777927041 | 16.67° C | 60% | 1017.5 hPa | 0 mm | - | 239 W/m² | - |
| 1777926437 | 16.67° C | 60% | 1017.4 hPa | 0 mm | - | 251 W/m² | - |
| 1777925838 | 16.11° C | 61% | 1017.3 hPa | 0 mm | - | 189 W/m² | - |
* Rain latest hour (hover to see other rain measurements)
** Current wind speed in m/s (hover to see current wind gust speed)